Cloud_Cover
100 100 100 100 98 92 74 100 100 100 97 97 94 100 100 94 10 23 0 0 0 2 5 2 3 5 2 5 7 4 17 6 4 3 0 0 0 0 0 1 1 4 4 5 16 100 100 86 92
93 100 87 41 89 37 36 96 100 95 90 97 100 99 100 45 0 0 0 0 0 0 5 5 3 0 2 0 0 13 28 12 7 8 1 0 0 4 1 5 5 10 10 16 100 98 99 63 100
31 100 96 98 29 100 99 83 100 51 38 100 34 98 100 57 0 0 0 0 0 1 11 5 4 4 5 3 0 1 0 5 20 5 1 1 44 5 4 0 5 5 1 4 80 100 100 100 100
90 77 92 99 64 60 100 79 100 100 37 91 74 100 100 62 6 5 0 0 0 0 4 5 5 5 5 5 4 5 5 5 5 7 3 0 6 43 41 2 4 2 5 5 7 13 100 100 97
42 67 100 100 73 32 62 100 100 100 54 97 66 99 96 77 17 20 0 0 0 9 8 0 5 63 5 22 75 86 5 3 1 0 12 3 8 3 4 0 0 6 3 6 5 12 5 57 100
84 76 100 100 99 99 59 74 100 100 100 100 98 100 86 30 16 14 1 0 33 18 42 12 1 4 6 84 100 44 0 3 5 8 86 78 8 4 10 0 1 5 5 5 52 98 98 55 97
100 100 100 100 100 50 79 97 99 100 100 100 100 100 99 64 18 4 2 0 35 39 39 34 10 2 4 8 96 4 0 4 1 45 66 100 5 4 1 5 0 5 6 5 11 20 73 98 100
93 100 100 100 100 99 100 100 100 100 100 100 100 100 88 99 16 0 5 0 38 46 35 15 14 72 89 20 5 2 0 0 5 10 100 99 2 3 0 0 1 2 4 3 5 37 94 100 97
11 87 100 100 100 85 48 77 88 92 100 100 100 100 65 100 32 3 0 3 35 70 13 33 60 69 98 80 8 6 4 5 0 0 57 100 44 59 64 0 2 0 0 0 12 6 36 82 60
44 100 100 100 99 99 49 83 96 98 100 100 100 82 24 91 5 4 0 0 4 5 7 82 89 47 68 84 25 22 48 30 40 16 15 52 45 54 6 0 0 0 2 3 8 2 46 100 60
10 99 44 100 100 30 92 99 100 89 100 100 100 72 5 6 2 5 5 0 2 0 28 43 99 100 100 9 8 24 92 38 32 39 30 87 53 62 26 4 0 0 10 53 45 45 77 30 22
28 4 13 100 100 82 100 98 100 100 100 100 85 23 5 6 1 5 0 0 0 4 2 35 19 86 65 44 26 36 82 52 61 21 36 14 52 79 41 19 0 0 10 0 2 15 1 21 7
0 0 5 75 100 100 100 98 100 100 99 99 100 30 5 0 0 0 5 0 0 1 0 0 0 2 66 44 15 40 41 82 32 7 24 4 8 16 5 4 12 0 0 0 0 2 27 24 8
0 0 4 5 60 100 100 100 100 100 100 100 11 3 5 0 0 5 4 2 1 0 1 0 0 0 25 35 11 32 37 10 70 5 5 5 4 0 0 0 0 0 0 0 0 0 66 42 17
0 0 3 5 27 100 100 100 100 100 99 99 5 5 4 0 5 12 5 3 0 0 0 5 0 0 18 28 7 51 10 32 73 25 5 5 5 5 3 2 1 0 0 0 0 0 0 43 20
0 0 11 3 26 14 100 100 100 100 100 92 10 5 5 4 4 11 6 6 6 2 0 5 4 0 0 2 0 36 75 30 38 48 3 4 1 0 0 13 0 0 0 0 0 22 64 27 9
0 4 3 4 16 55 87 100 100 100 100 100 46 7 5 1 0 3 5 17 22 4 0 1 0 0 0 0 1 17 8 1 0 19 62 5 1 0 0 43 22 0 0 0 23 14 72 1 31
2 18 0 3 23 69 87 100 100 100 100 100 100 87 40 3 0 0 4 5 5 5 0 0 0 0 0 2 1 9 32 98 11 0 80 0 0 0 0 3 1 0 0 0 45 13 3 14 8
5 5 4 5 31 68 100 100 100 100 100 98 90 100 100 42 1 0 0 33 11 8 4 0 4 0 0 0 0 5 34 63 0 0 0 0 27 1 0 5 0 0 4 32 0 0 1 4 0
0 0 2 4 11 79 100 99 100 65 100 100 86 100 100 100 39 2 0 2 5 6 5 1 0 0 0 1 31 34 2 1 49 16 2 0 0 0 0 0 1 2 14 0 0 0 9 0 0
0 4 1 3 6 89 100 99 84 82 93 100 100 100 100 100 87 3 0 2 5 5 5 0 0 5 0 11 9 17 4 2 8 0 5 0 2 6 2 0 3 0 43 2 0 0 2 29 0
0 2 2 0 2 61 83 100 99 88 96 99 99 100 100 100 100 93 29 5 2 5 1 0 0 2 0 0 5 0 18 48 98 56 7 2 0 22 0 0 0 0 71 2 0 0 5 6 7
35 0 0 0 0 0 48 100 100 70 97 89 69 74 96 98 93 100 56 23 0 0 0 0 0 0 0 0 0 0 7 0 0 89 1 16 1 0 10 0 0 0 37 0 1 0 0 0 24
1 0 0 0 0 0 15 92 5 55 98 99 100 84 100 26 34 44 100 90 0 0 0 0 0 0 0 0 0 0 10 2 2 32 5 18 3 4 0 0 0 0 2 0 0 0 0 0 4
0 0 0 0 0 0 0 77 64 79 80 72 94 73 32 19 84 90 82 81 26 0 0 0 0 1 2 0 0 0 0 5 0 6 1 99 54 35 2 4 1 3 0 0 0 0 0 0 0
0 0 0 0 0 0 0 7 72 20 34 65 100 100 90 90 16 100 96 4 0 0 0 0 0 0 0 0 0 0 0 0 0 0 8 1 52 12 1 0 0 0 0 0 0 0 0 0 0
0 0 2 4 5 2 0 1 21 37 37 28 100 100 100 99 98 80 94 76 18 0 0 0 1 0 0 0 0 0 0 0 0 0 0 0 18 48 0 0 0 0 0 0 0 10 0 0 0
0 0 0 0 2 1 1 0 23 72 83 100 100 100 100 100 75 97 84 99 92 20 0 0 32 87 59 88 29 44 1 0 0 0 0 0 0 0 2 0 0 0 0 1 12 21 0 0 0
0 0 0 0 0 0 5 15 91 84 100 100 100 100 100 100 94 93 98 100 100 95 35 15 61 83 86 100 75 17 72 2 0 0 0 0 0 0 0 0 0 7 0 6 21 5 5 0 0
0 0 0 0 2 0 23 83 98 55 98 100 100 100 100 100 100 100 83 100 90 83 99 100 89 35 88 51 70 45 69 64 45 0 0 0 0 0 0 0 0 0 1 0 0 3 5 6 2